Terug naar catalogus

COSMOS 1566

ActiefMilitairLEO
NORAD 15005·PAYLOAD·🇷🇺 Russia

Gelanceerd May 28, 1984 vanaf Plesetsk Cosmodrome

Loading…

Volgende Passages (komende 24 uur)

TLE

VersSource: Space-Track

Epoch: Sep 14, 2026, 19:25 UTC

1 15005U 84052H   26257.80923552 -.00000015  00000-0  11136-4 0  9999
2 15005  74.0091 270.8365 0051717 352.7036 180.1795 12.57385659941378

Volg COSMOS 1566 in realtime met AllMySat

Download on the App Store